User: anonymous   Login
Location: Newark
(34.1333°N, 7.9667°W)
Time: 12:15:56
(UTC+00:00)
Language:

Explorer 7 - Orbit

View from above orbital plane
View from above orbital plane
View from above satellite
View from above satellite

Ground track
Ground track

The orbit data is extracted from the following two-line orbital elements,

1 00022U 59009A   21163.63332314  .00000171  00000-0  35498-4 0  9997
2 00022  50.2831 211.5773 0138576 195.3489 164.3234 14.95593907524264
Epoch (UTC): 12 June 2021 15:11:59
Eccentricity: 0.0138576
inclination: 50.2831°
perigee height: 484 km
apogee height: 677 km
right ascension of ascending node: 211.5773°
argument of perigee: 195.3489°
revolutions per day: 14.95593907
mean anomaly at epoch: 164.3234°
orbit number at epoch: 52426

The dashed part of the orbit path shows where the satellite is in the earth's shadow,  

DLR